Location: Alexander
(41.3564°N, 81.5960°W)
Time: 09:28:00
(UTC+00:00)

CZ-4B R/B - Pass Details

Date: 24 January 2021
Orbit: 387 x 458 km, 97.6° (Epoch: 02 March)

Event Time Altitude Azimuth Distance (km) Brightness Sun altitude
Rises 22:59:59 0° 21° (NNE) 2,443 4.7 -5.5°
Reaches altitude 10° 23:02:10 10° 31° (NNE) 1,555 3.7 -5.9°
Maximum altitude 23:05:14 34° 98° (E) 727 2.0 -6.4°
Drops below altitude 10° 23:08:13 10° 166° (SSE) 1,504 4.1 -6.9°
Sets 23:10:17 0° 175° (S) 2,348 5.2 -7.3°
